This is the latest recevied weather packets stored in our database for station/object EA2MKR. If no packets are shown the sender has not sent any weather packets the latest 10 day(s).
| Time | Temp. | Humidity | Pressure | Rain* | Wind** | Luminosity | Snow |
|---|---|---|---|---|---|---|---|
| 1787913737 | 20.56° C | 46% | 957 hPa | 0 mm | - | - | - |
| 1787913362 | 19.44° C | 47% | 957 hPa | 0 mm | - | - | - |
| 1787913063 | 19.44° C | 48% | 956.9 hPa | 0 mm | - | - | - |
| 1787912762 | 19.44° C | 47% | 957.1 hPa | 0 mm | - | - | - |
| 1787912463 | 20° C | 47% | 957.3 hPa | 0 mm | - | - | - |
| 1787912162 | 19.44° C | 47% | 957.1 hPa | 0 mm | - | - | - |
| 1787911862 | 20° C | 46% | 957.2 hPa | 0 mm | - | - | - |
| 1787911563 | 19.44° C | 47% | 957.1 hPa | 0 mm | - | - | - |
| 1787911261 | 19.44° C | 46% | 957 hPa | 0 mm | - | - | - |
| 1787910962 | 19.44° C | 45% | 957.2 hPa | 0 mm | - | - | - |
| 1787910662 | 20° C | 45% | 957.2 hPa | 0 mm | - | - | - |
| 1787910362 | 19.44° C | 46% | 956.9 hPa | 0 mm | - | - | - |
| 1787910062 | 19.44° C | 46% | 957.1 hPa | 0 mm | - | - | - |
| 1787909762 | 19.44° C | 47% | 957.1 hPa | 0 mm | - | - | - |
| 1787909461 | 19.44° C | 47% | 956.9 hPa | 0 mm | - | - | - |
| 1787909162 | 18.89° C | 47% | 956.9 hPa | 0 mm | - | - | - |
| 1787908862 | 18.89° C | 49% | 956.9 hPa | 0 mm | - | - | - |
| 1787908562 | 18.89° C | 48% | 956.9 hPa | 0 mm | - | - | - |
| 1787908261 | 18.89° C | 49% | 957 hPa | 0 mm | - | - | - |
| 1787907961 | 18.33° C | 50% | 956.9 hPa | 0 mm | - | - | - |
| 1787907735 | 18.89° C | 49% | 957.1 hPa | 0 mm | - | - | - |
| 1787907361 | 18.89° C | 50% | 956.9 hPa | 0 mm | - | - | - |
| 1787907061 | 18.33° C | 50% | 957 hPa | 0 mm | - | - | - |
| 1787906760 | 18.33° C | 52% | 957 hPa | 0 mm | - | - | - |
| 1787906461 | 18.33° C | 51% | 956.9 hPa | 0 mm | - | - | - |
* Rain latest hour (hover to see other rain measurements)
** Current wind speed in m/s (hover to see current wind gust speed)